Skip Page Navigation
NASA JPL Caltech
NASA Logo - Jet Propulsion Laboratory + View the NASA Portal
+ Center for Near-Earth Object Studies
JPL Home Earth Solar System Stars & Galaxies Technology
JPL Solar System Dynamics
BODIES ORBITS EPHEMERIDES TOOLS PHYSICAL DATA DISCOVERY FAQ SITE MAP
IMPORTANT: The SSD Announcement email list is now available. Major changes are coming in the near future, including possible hostname and/or URL changes. To be notified of such changes, subscribe to this email list.

Please visit this page for more details.


JPL Small-Body Database Browser
Search: [ help ]  
193592 (2001 BN46)
Classification: Jupiter Trojan          SPK-ID: 2193592
Ephemeris | Orbit Diagram | Orbital Elements | Mission Design | Physical Parameters | Discovery Circumstances ]

[ show orbit diagram ]
Orbital Elements at Epoch 2458600.5 (2019-Apr-27.0) TDB
Reference: JPL 14 (heliocentric ecliptic J2000)
 Element Value Uncertainty (1-sigma)   Units 
e .07418058740346789 6.6443e-08  
a 5.152346255455218 1.5952e-07 au
q 4.770142183719491 3.2332e-07 au
i 11.68405973805674 7.2258e-06 deg
node 202.8917661620628 2.9601e-05 deg
peri 296.757130608272 6.6295e-05 deg
M 192.1808971514787 6.429e-05 deg
tp 2460591.837550511358
(2024-Oct-08.33755051)
0.00082541 TDB
period 4271.751582602418
11.70
0.00019839
5.432e-07
d
yr
n .0842745634990044 3.9139e-09 deg/d
Q 5.534550327190943 1.7136e-07 au
  Orbit Determination Parameters
   # obs. used (total)      371  
   data-arc span      8837 days (24.19 yr)  
   first obs. used      1995-06-26  
   last obs. used      2019-09-05  
   planetary ephem.      DE431  
   SB-pert. ephem.      SB431-N16  
   condition code      0  
   norm. resid. RMS      .58039  
   source      ORB  
   producer      Otto Matic  
   solution date      2019-Sep-24 03:56:09  

Additional Information
 Earth MOID = 3.80268 au 
 Jupiter MOID = .273274 au 
 T_jup = 2.953 
[ show covariance matrix ]

Ephemeris | Orbit Diagram | Orbital Elements | Mission Design | Physical Parameters | Discovery Circumstances ]

Physical Parameter Table
Parameter Symbol Value Units Sigma Reference Notes
absolute magnitude H 12.8   n/a MPO440068  

193592 (2001 BN46)          Discovered 2001-Jan-21 by LINEAR at Socorro
Reference: 20081113/Numbers.arcLast Updated: 2008-11-17
Ephemeris | Orbit Diagram | Orbital Elements | Mission Design | Physical Parameters | Discovery Circumstances ]
ABOUT SSD CREDITS/AWARDS PRIVACY/COPYRIGHT GLOSSARY LINKS
FirstGov 2019-Oct-14 16:54 UT
(server date/time)  
NASA Home Page
Site Manager:   Ryan S. Park
Webmaster  Alan B. Chamberlin